Location: Pittsburgh
(40.4410°N, 79.9960°W)
Time: 06:21:35
(UTC-04:00)

ARIANE 6 FM1 Upper Stage - Pass Details

Date: 18 March 2026
Orbit: 525 x 604 km, 62.0° (Epoch: 20 April)

Event Time Altitude Azimuth Distance (km) Brightness Sun altitude
Exits shadow 05:10:06 15° 351° (N) 1,512 5.0 -26.2°
Drops below altitude 10° 05:11:16 10° 6° (N) 1,793 5.6 -26.0°
Sets 05:13:58 0° 25° (NNE) 2,677 6.8 -25.5°
